Location: Poughquag
(41.6090°N, 73.6820°W)
Time: 02:03:03
(UTC-05:00)

Vanguard 1 - Visible Passes

Search period start: 07 December 2023 00:00
Search period end: 17 December 2023 00:00
Orbit: 652 x 3828 km, 34.3° (Epoch: 05 December)

Date Brightness Start Highest point End Pass type
(mag) Time Alt. Az. Time Alt. Az. Time Alt. Az.
07 Dec 12.7 16:55:35 10° SW 17:08:18 55° SSE 17:28:57 10° E visible
07 Dec 12.7 19:15:51 10° WSW 19:32:56 70° S 19:41:37 48° ESE visible
07 Dec 13.0 21:38:42 10° W 21:54:16 52° WSW 21:54:16 52° WSW visible
08 Dec 14.1 00:05:01 10° W 00:06:56 13° W 00:06:56 13° W visible
08 Dec 12.6 17:15:41 10° WSW 17:28:48 61° SSE 17:48:10 14° E visible
08 Dec 12.7 19:36:25 10° W 19:53:52 69° S 20:00:49 53° SE visible
08 Dec 13.2 21:59:36 10° W 22:13:29 45° WSW 22:13:29 45° WSW visible
09 Dec 12.6 17:35:55 10° WSW 17:49:25 65° SSE 18:07:25 18° E visible
09 Dec 12.7 19:57:02 10° W 20:14:47 66° S 20:20:05 57° SE visible
09 Dec 13.4 22:20:37 10° W 22:32:45 37° WSW 22:32:45 37° WSW visible
10 Dec 12.6 17:56:15 10° WSW 18:10:09 68° S 18:26:45 22° E visible
10 Dec 12.8 20:17:41 10° W 20:35:39 62° SSW 20:39:25 58° SSE visible
10 Dec 13.6 22:41:51 10° W 22:52:05 30° WSW 22:52:05 30° WSW visible
11 Dec 12.6 18:16:41 10° WSW 18:30:57 69° S 18:46:08 26° ESE visible
11 Dec 12.9 20:38:24 10° W 20:56:27 57° SSW 20:58:49 56° S visible
11 Dec 13.8 23:03:22 10° W 23:11:30 24° WSW 23:11:30 24° WSW visible
12 Dec 12.6 18:37:09 10° W 18:51:48 67° S 19:05:37 30° ESE visible
12 Dec 13.0 20:59:11 10° W 21:17:09 51° SSW 21:18:19 51° SSW visible
12 Dec 13.9 23:25:26 10° W 23:31:00 18° WSW 23:31:00 18° WSW visible
13 Dec 12.4 16:37:26 10° WSW 16:48:26 63° SSE 17:08:07 10° E visible
13 Dec 12.7 18:57:40 10° W 19:12:38 65° S 19:25:13 33° SE visible
13 Dec 13.1 21:20:06 10° W 21:37:46 44° SSW 21:37:55 44° SSW visible
13 Dec 14.1 23:48:31 10° W 23:50:37 12° WSW 23:50:37 12° WSW visible
14 Dec 12.4 16:57:43 10° WSW 17:09:04 65° S 17:29:15 10° E visible
14 Dec 12.7 19:18:14 10° W 19:33:27 61° SSW 19:44:57 35° SE visible
14 Dec 13.3 21:41:13 10° W 21:57:40 38° SW 21:57:40 38° SW visible
15 Dec 12.4 17:18:03 10° WSW 17:29:45 66° S 17:50:20 10° ESE visible
15 Dec 12.9 19:38:51 10° W 19:54:13 55° SSW 20:04:50 35° SE visible
15 Dec 13.5 22:02:39 10° W 22:17:34 31° SW 22:17:34 31° SW visible
16 Dec 12.5 17:38:27 10° W 17:50:28 65° S 18:11:19 10° ESE visible
16 Dec 13.0 19:59:34 10° W 20:14:56 49° SSW 20:24:56 34° SSE visible
16 Dec 13.7 22:24:38 10° W 22:37:41 24° SW 22:37:41 24° SW visible
